User: anonymous   Login
Location: Whitehorse
(60.7170°N, 135.0500°W)
Time: 10:02:04
(UTC-07:00)
Language:

Cosmos 2219 Rocket - Orbit

View from above orbital plane
View from above orbital plane
View from above satellite
View from above satellite

Ground track
Ground track

The orbit data is extracted from the following two-line orbital elements,

1 22220U 92076B   15184.90436388 -.00000239  00000-0 -95827-4 0  9993
2 22220 071.0003 122.7181 0015117 279.6437 136.5169 14.16370163169634
Epoch (UTC): 03 July 2015 21:42:17
Eccentricity: 0.0015117
inclination: 71.0003°
perigee height: 827 km
apogee height: 848 km
right ascension of ascending node: 122.7181°
argument of perigee: 279.6437°
revolutions per day: 14.16370163
mean anomaly at epoch: 136.5169°
orbit number at epoch: 16963

The dashed part of the orbit path shows where the satellite is in the earth's shadow,  

DLR